Content
SEND FEEDBACK

Daily
Averages
Monthly
Summary
United States of America

SIGOURNEY, IOWA


Home > North America > United States > Iowa
Elevation: 690 feet     Latitude: 41 19N     Longitude: 092 11W

WEATHER
 
SELECT A DAY
Number of Records: 373,857;   Date Range: 1/1/95 - 9/20/14
 
SHARE

PRINT THIS DATA

[ ← Previous Day ]
WEATHER ALMANAC - FEBRUARY 13, 2013
[ Next Day → ]
[ °C ]   °F
Weather ElementAverageHighLow
Temperature36.5 °F48.9 °F (3:53 pm)25 °F (6:53 am)
Dewpoint25.7 °F28 °F (11:53 am)21.9 °F (4:53 am)
Humidity66.6 %88 % (6:53 am)43 % (3:53 pm)
Barometer29.80 in29.87 in (1:53 am)29.72 in (9:53 pm)
Wind Speed8.3 mph12.7 mph (3:53 pm)
Wind Gust16.1 mph (2:53 pm)
Weather ElementAverage
Visibility10 mi
Wind DirectionWSW (245.7 °)

Weather ElementTotal
Precipitation---
Heating Degree Days28.1 (Base 65)
Averaged from 23 records on February 13, 2013
WEATHER CONDITIONS BREAKOUT
WIND DIRECTION BREAKOUT
WEATHER BY HOUR - FEBRUARY 13, 2013
[ °C ]   °F
Local TimeTemperatureDewpointHumidityBarometerVisibilityWind DirectionWind SpeedGust SpeedPrecipitationEventsConditions
1:53 AM30.9 °F24.1 °F76 %29.87 in10.0 miSW (230°)9.2 mphClear
2:53 AM30.0 °F24.1 °F79 %29.85 in10.0 miWSW (240°)9.2 mphClear
3:53 AM28.9 °F23.0 °F78 %29.85 in10.0 miWest (270°)8.1 mphClear
4:53 AM27.0 °F21.9 °F81 %29.83 in10.0 miWest (260°)5.8 mphClear
5:53 AM26.1 °F21.9 °F84 %29.83 in10.0 miWest (260°)5.8 mphClear
6:53 AM25.0 °F21.9 °F88 %29.83 in10.0 miWest (280°)6.9 mphClear
7:53 AM27.0 °F23.0 °F85 %29.83 in10.0 miWest (260°)4.6 mphClear
8:53 AM30.0 °F24.1 °F79 %29.84 in10.0 miWest (270°)8.1 mphClear
9:53 AM33.1 °F25.0 °F72 %29.84 in10.0 miWest (270°)6.9 mphClear
10:53 AM37.0 °F27.0 °F67 %29.84 in10.0 miWNW (290°)9.2 mphClear
11:53 AM39.9 °F28.0 °F63 %29.83 in10.0 miWest (280°)6.9 mphClear
12:53 PM43.0 °F28.0 °F56 %29.80 in10.0 miWest (270°)8.1 mphClear
1:53 PM46.0 °F27.0 °F47 %29.78 in10.0 miWest (260°)11.5 mphClear
2:53 PM48.0 °F28.0 °F46 %29.77 in10.0 miWSW (250°)11.5 mph16.1 mphClear
3:53 PM48.9 °F27.0 °F43 %29.76 in10.0 miWest (260°)12.7 mphClear
4:53 PM48.0 °F27.0 °F44 %29.76 in10.0 miWSW (240°)8.1 mphClear
5:53 PM43.0 °F27.0 °F53 %29.76 in10.0 miSW (230°)6.9 mphClear
6:53 PM37.0 °F26.1 °F65 %29.76 in10.0 miSSW (200°)6.9 mphClear
7:53 PM37.0 °F26.1 °F65 %29.76 in10.0 miSSW (200°)6.9 mphMostly Cloudy
8:53 PM37.0 °F28.0 °F70 %29.74 in10.0 miSouth (190°)8.1 mphMostly Cloudy
9:53 PM37.9 °F27.0 °F65 %29.72 in10.0 miSouth (190°)9.2 mphOvercast
10:53 PM39.0 °F28.0 °F65 %29.72 in10.0 miSSW (200°)9.2 mphOvercast
11:53 PM39.9 °F27.0 °F60 %29.72 in10.0 miWSW (250°)11.5 mphScattered Clouds
Hourly data recorded from KOTM, located miles away from Sigourney, Iowa







STORIES FROM OUR PARTNERS